Theta_e
314 315 315 316 316 317 317 317 316 316 315 315 317 320 321 322 323 325 330 335 333 330 332 331 330 331 333 334 340 345 342 346 349 351 351 350 349 350 351 350 350 349 348 347 347
316 316 315 315 315 316 317 317 317 316 316 315 316 319 321 322 324 328 332 335 334 332 332 331 333 334 333 332 334 344 341 344 347 347 351 350 349 349 351 351 350 348 348 348 348
319 319 318 317 316 316 316 317 317 317 316 316 316 317 320 322 325 331 334 334 336 333 332 332 331 332 331 332 335 344 342 345 348 347 350 350 349 349 348 349 349 348 348 349 349
323 323 322 321 319 318 317 317 318 318 317 316 316 316 318 321 328 328 333 334 333 333 332 332 331 333 330 328 339 345 345 344 348 349 349 350 348 348 346 346 347 347 346 347 349
324 324 324 324 323 321 319 317 317 318 319 317 316 316 317 320 328 330 330 334 333 332 331 331 331 332 331 330 338 344 349 344 342 345 348 348 348 347 346 345 347 348 347 347 347
323 324 324 325 324 324 322 320 318 318 319 319 317 316 317 318 327 330 330 329 332 332 330 331 332 333 331 326 331 347 348 344 344 344 349 349 348 346 345 345 350 349 347 348 347
322 322 323 324 325 325 324 322 320 318 319 319 318 317 316 323 327 329 329 329 328 329 331 331 331 330 330 325 344 344 344 339 339 342 345 349 350 347 346 344 349 348 348 347 346
319 320 321 323 324 325 325 324 321 318 318 319 319 318 317 318 323 329 329 329 328 329 330 333 331 329 328 327 329 344 340 342 339 344 343 348 349 346 346 344 345 345 347 347 346
318 318 319 321 322 324 325 325 319 317 317 318 318 319 318 317 321 328 330 330 329 330 330 329 329 328 326 324 323 326 335 343 342 343 346 348 349 344 345 346 343 343 344 343 345
317 318 318 319 321 323 324 325 317 316 316 317 317 322 322 324 323 326 329 328 328 328 329 328 327 322 319 321 325 328 329 333 340 344 347 349 349 346 346 344 342 342 341 342 344
316 317 317 318 320 322 324 324 324 324 316 319 321 321 324 325 326 322 328 327 325 326 326 327 324 323 323 321 323 324 325 326 327 333 347 350 349 346 347 344 343 343 343 343 345
315 316 316 317 319 321 323 323 324 325 322 323 325 324 325 324 325 326 323 324 324 323 322 322 322 322 323 324 324 324 324 326 326 343 345 347 350 345 346 346 346 345 344 343 344
315 315 315 317 320 322 324 326 327 327 324 325 325 325 324 325 325 327 324 324 323 322 322 322 324 324 324 324 324 324 323 325 326 334 345 339 337 347 346 345 346 346 344 342 342
314 314 315 317 321 327 329 327 326 330 319 322 324 325 324 326 326 327 326 325 323 323 323 323 324 324 324 324 324 322 325 325 326 327 335 334 334 328 344 344 344 344 344 343 342
314 314 315 318 326 329 328 328 326 326 325 327 324 326 326 326 325 326 328 325 322 324 323 324 325 325 325 325 323 324 325 325 326 327 326 327 328 326 340 344 345 342 343 343 343
314 315 318 320 323 327 328 329 325 322 329 327 325 326 327 326 326 325 323 325 326 324 323 323 325 324 324 325 325 326 324 321 321 322 324 324 328 328 337 343 344 344 342 343 343
318 321 322 321 326 327 329 329 322 326 326 327 326 325 324 324 324 325 322 322 323 325 323 324 325 324 326 326 325 321 319 322 323 321 322 322 330 328 329 334 339 340 340 343 339
327 328 327 326 328 328 328 324 330 329 329 326 326 322 324 322 323 323 322 322 321 323 320 323 326 324 325 325 327 325 319 320 323 323 323 323 330 326 329 334 336 339 339 341 342
328 330 330 324 328 328 330 326 325 326 328 329 326 326 326 326 328 326 322 321 321 321 325 322 325 326 326 325 325 325 320 318 316 317 319 320 323 327 334 336 337 337 338 339 343
328 332 332 329 328 330 325 326 327 326 329 327 328 328 329 326 328 326 325 327 329 325 321 322 324 325 326 326 324 322 319 321 315 322 323 323 325 325 334 336 335 335 338 337 337
330 333 331 327 329 330 324 325 328 328 328 327 328 328 327 328 328 328 328 328 328 329 324 323 321 326 325 324 326 322 320 315 314 316 319 320 323 324 331 334 335 335 337 338 338
328 329 330 329 327 322 325 326 329 322 326 326 326 327 328 324 329 327 327 325 326 331 330 327 321 324 325 325 323 321 319 314 316 318 316 317 320 323 325 331 337 338 338 338 339
328 330 330 329 323 320 320 321 321 322 320 324 322 322 323 323 327 327 323 323 324 330 330 330 324 324 325 324 327 325 325 318 314 313 318 319 320 321 333 333 338 340 340 340 339
326 320 325 328 322 320 320 320 321 322 321 322 320 319 319 320 319 323 321 322 322 323 324 327 326 327 328 329 327 330 332 327 323 324 322 320 324 323 324 334 335 339 341 341 338
322 319 319 319 319 319 318 319 322 321 319 320 320 319 320 320 319 320 320 318 320 321 322 324 329 329 327 328 331 333 333 333 330 324 326 326 321 323 323 324 332 335 338 339 336
319 319 320 320 321 318 316 318 320 320 320 320 320 320 319 319 320 319 319 318 319 318 320 320 320 325 323 327 332 332 330 331 332 330 324 325 328 323 328 329 335 336 336 337 334
317 320 320 319 317 317 318 321 321 319 320 320 320 319 319 320 320 321 318 320 319 318 318 316 319 321 320 327 324 318 325 331 331 330 330 331 330 337 335 329 332 335 337 336 335
Wind_Speed
6 5 5 5 4 5 5 5 4 3 3 4 4 4 5 6 8 9 10 7 6 4 6 8 11 12 12 4 3 5 2 1 2 0 4 2 2 7 4 14 4 7 9 13 26
6 5 5 5 5 5 5 5 5 4 3 4 4 5 5 6 9 12 5 10 10 8 7 9 13 15 8 4 4 4 2 4 3 3 4 3 3 7 4 4 4 10 13 26 24
6 6 6 6 5 5 5 5 5 5 4 3 4 5 5 6 8 1 7 8 9 9 6 8 11 10 5 4 3 6 3 5 2 6 4 6 3 2 15 2 8 19 28 27 25
7 7 6 6 6 6 5 5 5 5 4 4 4 5 5 3 2 2 6 7 6 7 6 7 6 9 6 5 4 4 5 6 4 2 4 7 6 2 10 5 15 17 24 27 30
7 7 7 7 7 7 6 5 5 5 5 4 4 5 5 5 8 5 4 8 8 7 7 7 7 4 3 9 9 3 3 1 0 1 4 11 8 4 9 9 19 22 23 26 29
7 7 7 7 7 7 6 6 6 5 5 4 5 6 6 5 6 12 3 4 13 10 9 8 5 10 7 9 1 2 1 2 4 3 7 6 3 1 5 13 21 24 26 28 27
9 8 8 8 7 7 7 7 6 5 5 4 5 6 11 17 7 5 9 4 10 12 9 7 10 6 12 6 3 6 0 4 8 5 4 7 4 8 10 19 25 24 24 24 25
10 9 9 8 8 7 7 7 6 4 5 5 5 7 10 8 20 14 9 6 7 9 10 10 12 13 6 4 3 1 3 3 2 5 5 10 8 10 18 22 26 27 27 25 24
11 10 10 9 8 7 7 6 4 4 5 6 6 6 10 7 19 16 15 10 7 6 7 13 12 6 4 2 4 4 3 3 7 15 4 6 7 7 18 21 24 27 31 22 19
12 11 11 10 9 6 6 4 3 4 6 7 9 6 8 2 6 22 18 12 12 10 12 9 1 2 3 4 4 3 5 4 7 5 6 8 17 3 15 21 24 26 26 24 26
13 12 11 10 9 6 5 3 2 3 10 10 4 9 10 7 5 10 23 17 13 7 4 8 3 7 12 6 7 3 4 8 16 10 6 15 16 8 14 16 18 26 23 22 27
14 12 11 10 9 6 5 4 2 1 10 18 21 27 27 20 8 4 21 13 9 6 3 4 7 12 5 4 5 5 7 17 12 5 10 3 16 6 10 18 27 25 23 26 26
15 12 10 10 7 5 4 0 5 6 4 8 13 18 19 12 11 15 17 20 4 6 6 7 12 2 3 6 5 10 6 13 8 4 3 3 7 6 7 4 17 22 26 28 31
16 12 9 7 2 3 7 4 7 1 4 5 3 4 12 7 5 18 23 18 3 10 6 6 11 8 8 9 4 8 15 14 6 2 4 5 6 6 5 4 6 18 27 30 31
14 11 8 4 5 6 1 6 2 1 2 2 2 2 11 10 0 7 20 23 9 8 7 10 4 6 5 9 7 11 6 5 4 3 2 2 1 7 3 6 14 16 27 30 33
14 8 5 3 8 4 1 4 3 5 1 5 4 4 5 5 2 4 13 22 8 5 3 9 6 5 8 8 7 7 2 5 5 3 1 3 4 8 4 7 5 14 29 33 32
9 4 0 5 8 5 2 3 5 3 4 7 2 4 2 1 4 1 4 7 7 3 7 4 13 5 6 6 4 4 5 3 5 4 7 1 2 9 13 7 11 8 25 36 34
6 5 3 10 7 5 4 5 2 2 4 5 4 3 3 2 3 2 7 6 5 1 3 5 10 8 3 8 6 3 7 5 7 3 5 3 4 7 4 6 11 14 16 24 29
3 5 5 7 7 6 5 3 5 5 4 5 6 6 4 5 0 5 1 2 5 10 8 5 8 2 3 2 6 4 5 4 6 2 3 4 8 9 6 1 7 14 16 24 36
1 3 3 0 9 6 4 4 3 5 4 1 3 1 3 6 5 5 7 8 8 2 8 6 6 6 11 4 4 7 6 2 3 3 4 4 5 5 7 8 8 10 21 26 28
2 3 3 6 9 1 3 6 5 13 7 3 2 2 4 3 3 3 6 6 13 9 7 1 3 7 1 5 6 1 3 4 5 5 5 2 6 8 9 10 10 9 24 30 29
3 3 6 9 3 2 1 4 5 10 14 5 5 5 3 5 3 4 4 5 19 7 3 2 3 4 9 3 5 1 3 5 5 7 4 5 6 4 8 11 11 17 21 25 31
3 3 10 8 2 3 6 5 5 5 6 6 7 6 4 2 2 3 4 5 18 7 5 5 2 4 9 6 6 6 5 3 4 3 3 5 6 3 5 7 16 14 18 20 24
3 2 3 5 4 2 4 4 3 9 5 7 4 5 5 4 5 1 4 3 9 5 13 4 2 4 5 4 3 4 6 4 2 2 3 5 7 9 8 7 15 22 23 22 18
6 3 3 3 4 5 2 4 3 5 5 17 5 5 4 4 6 3 1 4 4 7 5 4 3 3 6 8 5 6 6 5 6 5 5 7 7 9 8 10 13 23 25 29 24
5 5 5 3 8 3 6 6 5 5 4 4 3 3 2 3 2 6 3 2 4 3 1 1 4 2 6 6 8 10 11 9 8 7 6 5 5 4 21 22 15 15 21 30 30
9 6 3 5 5 3 2 3 5 5 1 9 4 2 4 4 16 16 11 7 8 5 4 4 4 2 6 2 6 9 8 5 4 3 1 1 4 10 11 9 19 20 23 29 29
Wind_Direction
5 358 356 354 354 349 347 341 331 315 284 261 256 264 274 281 282 273 249 205 208 247 308 328 334 342 333 296 241 204 65 256 240 226 259 219 204 66 101 130 151 220 193 181 166
358 352 350 345 344 340 337 335 329 316 290 265 254 261 276 288 288 276 256 225 221 251 289 325 336 337 322 273 229 170 121 212 235 222 240 183 182 134 89 85 77 112 149 159 171
349 347 344 339 335 331 327 325 323 315 299 271 252 250 267 292 305 254 199 216 223 234 268 309 333 341 319 329 253 212 213 186 215 247 209 157 167 112 130 235 184 159 158 166 176
342 340 338 334 330 324 317 313 311 308 301 285 261 249 254 271 208 114 190 176 202 226 265 307 349 327 326 332 270 137 205 191 188 132 153 153 168 148 183 206 186 177 169 174 186
337 334 331 330 326 319 313 303 294 292 295 289 266 251 251 249 245 148 111 203 222 239 260 294 319 325 352 314 294 124 209 319 269 236 176 158 201 216 222 205 183 176 179 182 189
338 332 327 324 320 316 311 302 289 276 276 278 264 253 242 251 254 235 189 207 224 238 260 274 289 314 313 283 319 187 134 328 268 215 157 155 239 225 216 180 173 182 190 196 200
341 334 327 320 316 314 309 303 295 271 257 262 268 262 250 237 230 220 190 231 243 231 256 295 292 304 319 310 143 136 241 276 225 228 197 152 277 238 218 186 181 189 198 201 205
340 334 328 320 313 310 305 306 296 259 242 249 263 272 256 245 232 196 197 216 211 237 255 279 292 303 288 301 349 268 54 351 232 198 209 159 270 240 215 186 196 200 197 207 223
336 331 328 321 312 307 297 302 291 252 234 243 257 261 265 240 214 195 194 194 200 216 247 272 289 291 309 42 6 338 259 256 313 201 156 176 262 269 208 202 208 203 214 215 215
333 328 325 318 309 303 292 296 271 246 230 234 242 286 251 110 250 204 195 222 245 258 282 266 301 34 23 72 244 254 310 273 244 232 203 210 253 277 210 196 216 220 219 225 222
330 326 322 316 307 296 276 269 246 249 228 219 228 240 270 295 337 205 204 215 232 243 219 285 32 252 250 210 232 266 256 257 284 270 162 211 236 236 222 205 214 226 228 217 201
328 324 318 311 303 289 254 227 226 13 293 264 252 256 253 264 302 235 201 187 175 196 103 357 249 243 248 268 235 242 275 282 277 210 178 145 247 237 206 217 209 218 222 206 194
326 322 316 307 296 271 235 340 328 290 280 289 244 244 239 228 221 229 202 208 144 171 176 191 244 32 252 286 304 283 221 272 238 337 201 109 295 252 238 229 208 220 224 210 196
327 321 314 306 274 147 114 0 351 225 47 278 254 250 188 188 253 222 202 199 216 205 176 226 273 239 269 276 156 265 277 256 256 116 222 142 272 277 281 265 212 217 223 221 213
326 318 306 240 171 141 24 1 44 86 43 327 194 145 165 171 112 206 201 189 180 191 125 239 243 225 230 242 171 238 283 260 266 169 46 243 48 269 3 264 232 210 221 220 220
330 321 297 207 189 175 79 66 113 37 352 352 126 172 135 239 261 127 176 194 227 178 242 234 257 178 222 256 190 266 295 35 43 71 23 273 133 288 226 222 251 198 209 216 216
348 355 1 163 151 177 138 124 42 111 331 339 291 164 165 51 348 18 160 201 184 145 242 304 258 255 208 274 331 87 61 329 336 356 238 35 114 241 263 248 239 175 200 213 218
27 45 53 157 153 163 139 54 123 255 279 308 322 73 77 119 242 249 159 215 285 30 100 190 312 174 177 188 215 217 156 162 228 215 256 309 255 267 324 291 224 210 222 203 201
37 36 69 169 163 156 145 74 209 211 270 310 338 59 359 359 69 19 234 294 209 171 198 164 266 215 254 112 122 277 228 208 108 25 49 258 292 317 332 143 176 160 181 186 203
30 5 73 85 181 144 83 229 237 229 308 248 102 70 45 342 21 17 6 14 340 276 212 228 262 240 277 179 238 165 168 72 16 166 243 280 281 241 303 262 237 162 198 196 200
22 82 81 121 146 82 143 232 265 316 285 232 148 119 148 145 168 43 347 38 355 328 44 42 181 280 182 182 203 165 239 47 121 131 177 193 264 214 230 237 236 232 217 216 212
46 58 151 163 48 34 191 209 298 335 17 14 60 74 32 25 58 70 84 16 357 344 11 300 173 272 240 265 320 123 86 136 124 262 173 161 267 268 255 261 231 235 232 237 221
38 68 178 184 77 328 308 300 26 27 6 21 23 52 34 59 85 78 24 47 16 35 18 334 355 337 344 10 7 37 18 96 105 67 213 140 266 309 340 290 260 281 243 240 230
9 49 88 215 85 71 348 318 14 31 60 69 25 66 47 51 0 74 0 359 9 29 16 98 77 160 207 229 253 300 339 353 102 113 217 221 279 317 311 255 263 243 250 235 217
36 54 29 328 344 353 333 339 13 1 31 29 39 64 38 6 352 353 304 321 328 36 38 74 283 229 240 257 260 259 238 259 230 209 176 255 209 266 274 283 253 247 238 238 221
47 19 3 351 320 354 7 356 15 336 32 353 60 317 107 80 239 270 264 235 227 326 69 192 257 293 278 229 248 285 279 255 225 243 230 249 268 223 306 304 284 230 214 234 225
41 22 356 355 354 61 337 314 24 356 335 46 5 98 57 321 311 291 262 234 238 211 237 189 193 195 259 232 338 298 229 192 135 89 261 182 248 328 314 302 275 265 223 215 233